Wetbulb
52.57 52.34 52.38 52.65 52.74 52.71 52.63 52.61 52.63 52.90 52.34 52.76 52.98 53.32 53.58 53.62 53.44 52.38 53.67 55.88 52.23 50.53 51.85 52.75 52.92 50.59 51.60 52.68 50.94 54.23 53.44 54.47 55.58 53.19 52.99 53.36 52.23 54.32 52.67 53.96 52.97 52.45 51.16 50.39 51.23 48.67 46.27 59.53 58.99 55.34 60.38 63.55 63.63 63.66
52.14 52.37 52.33 52.41 52.33 52.60 52.45 52.49 52.49 52.30 51.89 52.53 52.44 52.82 53.05 53.27 53.11 52.68 52.10 55.59 55.05 49.65 51.01 53.61 53.81 55.00 54.84 54.93 52.73 54.74 52.99 52.83 56.69 55.07 55.76 55.82 52.62 55.06 53.25 49.14 56.49 50.54 53.33 51.31 52.91 52.81 59.18 60.63 60.72 62.39 63.20 63.41 63.27 63.06
52.06 52.34 52.46 52.44 52.52 52.71 52.48 52.43 52.39 52.32 52.12 51.79 52.38 52.69 52.86 52.86 52.87 52.03 50.72 51.91 51.68 49.31 51.98 52.66 52.84 56.61 56.65 54.21 56.26 51.19 54.79 54.73 56.74 57.28 56.74 56.77 53.47 55.98 50.87 51.56 53.25 55.98 58.49 55.38 55.99 58.20 59.37 59.72 61.20 62.44 63.57 63.45 62.00 61.16
51.94 52.21 52.36 52.59 52.53 52.72 52.59 52.37 52.32 52.30 52.16 52.08 52.22 52.51 52.57 52.79 52.80 52.30 50.16 53.10 52.13 50.59 48.13 53.22 58.27 57.00 59.55 58.59 55.28 55.04 54.87 55.75 56.98 57.15 55.69 55.16 53.45 55.98 53.04 53.72 53.48 55.74 59.22 56.99 57.27 59.03 58.63 59.69 61.65 62.54 62.15 61.80 61.05 61.45
51.94 52.09 52.16 52.39 52.72 52.49 52.29 52.10 51.79 51.89 51.99 52.20 52.37 52.47 52.44 52.28 52.32 52.17 51.84 51.46 51.55 50.46 50.52 52.64 56.95 57.77 59.03 58.30 57.45 56.07 54.08 53.65 55.24 53.64 53.14 52.17 56.83 54.44 55.67 54.79 52.58 56.25 55.44 54.87 52.28 58.72 59.69 59.73 62.30 62.64 60.85 60.69 61.24 61.70
51.73 51.70 51.79 51.94 52.24 52.35 52.21 52.22 52.03 52.11 52.38 52.46 52.60 52.48 52.30 52.11 51.89 51.02 50.26 52.87 52.57 53.08 50.51 49.86 56.23 55.66 58.75 57.99 57.31 56.44 55.74 53.84 54.08 54.40 53.85 55.75 55.83 54.21 51.26 50.59 55.32 56.46 58.11 58.24 56.81 60.66 61.24 61.56 62.48 62.10 61.48 61.50 61.84 61.83
51.63 51.68 51.68 51.77 51.70 51.90 52.05 52.09 51.97 51.86 52.43 52.41 52.40 52.10 51.94 51.48 51.58 52.47 50.84 53.31 51.89 54.07 50.96 50.72 52.07 56.89 58.44 57.78 57.70 56.82 57.30 56.23 55.71 55.57 54.97 55.01 55.49 53.78 51.06 48.27 54.24 56.18 56.66 58.93 60.75 60.56 59.11 60.75 60.03 61.84 62.15 62.37 61.10 62.70
51.68 51.46 51.58 51.50 51.65 52.17 52.29 52.40 52.33 51.87 52.38 52.34 52.10 51.61 51.40 51.18 50.74 52.57 54.88 51.36 53.03 52.96 53.38 49.06 51.39 54.17 58.47 55.66 54.34 57.84 55.44 55.94 56.19 55.65 57.66 54.54 56.08 54.86 50.23 54.15 55.50 56.04 56.63 58.29 60.60 61.40 60.72 62.28 62.22 62.15 62.72 62.77 61.17 60.34
51.66 51.63 51.53 51.61 51.82 52.13 52.24 52.30 52.19 52.01 51.96 51.76 51.79 51.12 53.06 53.33 54.86 53.05 54.14 52.01 54.62 52.57 50.82 52.54 50.04 51.31 58.99 57.94 58.42 56.00 57.23 52.66 57.63 53.61 54.21 55.81 53.68 50.83 54.44 56.10 56.51 57.39 56.91 57.83 59.87 60.94 60.46 61.20 61.24 61.77 61.59 61.16 59.43 60.03
51.50 51.39 51.37 51.62 51.83 51.98 52.02 52.20 52.18 51.78 51.18 51.49 52.19 52.79 52.99 51.97 52.40 52.99 51.62 49.58 51.06 52.41 52.59 50.22 55.62 50.94 53.74 56.07 55.47 55.66 56.15 53.21 51.00 54.16 58.04 53.22 52.65 57.02 57.69 58.47 59.14 59.44 59.97 60.09 58.96 58.12 59.47 59.62 60.15 60.61 60.08 60.12 60.47 60.61
51.42 51.50 51.58 51.91 51.98 52.02 52.12 51.94 51.78 51.24 51.45 53.20 51.06 50.63 52.58 53.32 53.53 52.73 50.00 49.05 50.39 47.57 52.40 52.90 52.90 52.41 57.42 52.45 54.26 58.00 55.33 56.11 49.36 52.72 52.20 51.41 51.33 55.54 59.24 59.43 60.91 61.00 60.74 60.82 61.40 61.60 61.05 60.68 60.16 59.98 59.84 60.09 60.45 60.62
51.39 51.54 51.66 51.66 51.80 51.92 51.96 51.93 51.57 50.82 49.70 48.23 48.78 49.87 50.04 51.51 49.42 46.51 47.08 50.59 48.86 48.84 53.64 52.50 52.49 56.43 58.03 58.67 54.13 55.96 52.26 54.00 47.93 56.30 51.97 48.53 55.23 58.99 58.74 58.49 59.40 59.38 60.12 60.15 60.63 59.78 59.79 59.61 59.57 59.34 59.45 59.63 60.40 61.14
51.41 51.49 51.37 51.55 51.54 51.80 52.02 51.46 51.33 51.35 51.11 51.15 46.94 45.70 47.52 49.62 40.73 42.46 41.81 47.02 48.95 53.47 54.25 54.81 53.55 57.11 58.15 57.27 55.55 54.40 49.48 49.21 56.85 50.75 48.75 52.34 57.91 58.20 58.49 58.95 58.95 60.00 59.87 59.34 58.86 59.05 59.02 58.63 59.17 58.59 58.58 59.97 60.89 61.17
51.35 51.00 51.13 51.35 51.59 51.45 51.29 51.15 51.25 50.50 49.41 46.98 44.99 38.87 44.22 44.07 46.32 47.80 48.59 50.69 54.00 55.31 55.64 56.46 55.33 55.79 57.35 53.96 54.80 48.52 52.86 53.44 47.29 45.85 46.78 54.93 57.66 57.50 58.99 59.33 59.38 58.54 58.72 58.17 57.82 57.99 57.85 57.34 58.06 58.81 59.07 59.93 60.57 59.86
51.02 51.04 51.23 51.28 51.30 51.32 51.15 50.97 50.73 50.34 47.69 46.07 46.78 40.67 45.14 49.76 51.92 51.50 53.37 54.52 56.30 54.49 55.72 52.53 52.74 55.66 53.08 50.88 53.46 51.68 47.57 45.59 48.01 48.37 53.78 56.75 58.30 58.79 58.81 58.83 58.82 58.50 58.64 58.51 58.46 57.78 57.76 58.13 58.60 58.94 59.89 60.45 60.37 60.66
50.95 50.89 52.20 50.55 51.13 50.83 50.26 50.56 50.62 50.19 47.62 45.76 46.82 44.97 48.99 48.20 48.82 51.00 49.43 51.31 54.59 55.85 56.15 56.09 51.26 49.31 48.84 50.33 48.00 46.88 46.35 45.72 50.49 55.44 57.58 57.97 58.67 59.19 58.84 59.43 59.66 59.47 58.16 57.23 57.05 56.94 57.33 57.61 57.58 58.37 59.38 59.73 59.94 60.14
50.41 51.00 50.80 50.86 50.62 50.14 50.35 50.13 49.28 45.41 44.60 45.24 44.98 49.10 47.74 47.98 48.46 50.57 51.04 48.32 54.43 52.46 49.00 50.53 46.05 46.27 52.47 48.10 46.69 51.40 49.72 53.40 56.40 58.23 59.69 59.88 59.34 58.02 56.76 58.09 58.32 57.33 56.99 57.20 57.16 56.94 56.69 57.54 57.68 57.25 56.52 57.39 59.24 59.64
48.68 51.36 50.67 50.36 50.47 49.86 49.86 50.12 47.48 45.31 42.29 45.66 44.59 46.75 50.08 50.43 49.12 50.42 52.88 54.13 52.23 52.10 51.92 48.93 52.17 46.95 46.11 44.40 48.35 53.58 56.35 58.17 60.20 59.83 60.38 59.73 59.60 58.68 58.62 59.71 57.79 57.81 57.81 57.88 57.42 57.19 57.22 56.91 55.79 53.70 54.70 57.18 58.12 59.74
49.36 50.19 50.39 50.15 49.90 47.19 44.25 45.73 48.26 41.58 43.22 46.78 47.56 48.04 48.42 48.69 50.31 51.59 51.53 52.11 52.99 53.51 51.29 50.70 47.50 46.45 48.37 51.43 51.95 53.30 55.93 56.71 57.18 59.73 59.60 58.84 59.07 59.14 59.87 60.37 58.41 57.72 58.14 58.44 58.26 57.42 57.73 58.37 57.50 57.48 56.82 55.82 55.81 57.74
49.87 49.85 50.18 50.44 50.24 46.05 42.28 43.77 49.48 43.99 41.35 45.11 46.29 46.79 47.88 48.01 49.57 50.37 50.69 50.97 50.57 49.57 46.86 45.36 46.40 49.78 51.14 54.33 54.77 55.07 55.85 58.06 58.35 56.65 58.00 58.85 57.70 60.02 60.45 59.71 58.13 58.24 57.89 58.68 58.85 49.75 59.39 59.43 59.56 59.17 57.49 56.66 58.72 58.87
49.45 50.49 50.49 50.44 47.84 46.32 44.02 42.94 43.08 44.67 46.12 45.12 47.57 47.35 46.52 48.88 48.00 48.11 48.38 51.01 48.15 47.50 47.08 49.44 50.30 52.33 54.93 55.27 56.42 57.33 58.63 57.24 56.50 57.68 55.81 54.02 58.22 60.50 61.34 59.56 59.94 58.94 57.36 57.44 58.49 56.69 55.24 57.41 59.89 60.93 60.10 60.17 60.26 59.95
50.83 49.55 49.08 49.02 44.76 44.19 42.56 45.61 43.96 45.32 44.13 45.12 45.37 46.35 44.88 45.19 46.21 47.28 49.75 47.22 47.48 49.14 50.39 50.85 51.92 52.97 53.22 54.00 55.00 56.86 57.29 58.89 58.85 56.63 51.16 51.99 54.00 59.38 59.95 58.97 58.19 57.60 57.83 58.55 59.06 57.98 59.28 59.30 59.51 57.72 55.30 58.86 56.64 60.42
49.59 48.91 46.59 45.82 41.67 39.55 39.91 46.41 40.91 42.18 40.89 42.90 45.70 42.86 44.16 45.56 46.95 49.82 46.63 48.61 51.79 54.14 54.60 54.39 54.62 55.43 55.43 56.29 56.48 56.51 58.14 57.48 56.38 56.45 55.14 54.71 57.08 58.17 58.09 60.02 58.90 57.77 57.85 59.03 59.51 58.69 58.90 53.57 56.27 57.62 58.38 59.13 61.27 60.96
48.65 44.68 41.82 40.77 40.13 37.94 44.65 41.05 42.60 41.32 43.00 41.89 41.23 40.84 43.61 45.27 48.76 47.34 45.63 50.00 52.84 55.91 53.27 53.56 54.93 53.39 56.34 56.85 55.18 55.20 56.07 56.87 56.64 57.29 56.14 55.38 54.03 55.64 58.95 59.59 59.87 60.04 60.01 60.23 59.79 59.51 59.14 58.86 54.18 58.38 58.90 58.84 58.75 58.91
39.14 38.25 39.89 35.76 42.23 38.93 37.95 39.43 40.14 40.34 39.13 41.03 40.63 42.22 44.39 47.65 43.86 44.31 44.46 46.78 50.04 50.89 50.78 51.19 51.62 51.66 53.45 55.76 56.29 56.34 58.08 56.95 55.96 55.98 57.42 56.68 54.85 56.22 58.24 58.81 59.38 59.86 60.28 60.17 59.86 59.64 59.65 59.34 58.64 58.21 58.18 58.56 58.10 57.74
35.03 40.29 38.18 39.79 40.93 38.90 38.91 37.64 39.08 38.95 40.85 40.89 42.12 45.38 46.07 43.89 41.39 41.95 45.82 49.54 49.45 50.09 49.54 48.48 49.26 49.12 51.38 54.96 55.25 57.16 57.44 58.73 57.67 56.13 57.26 57.21 55.08 56.89 56.96 56.89 56.28 57.41 60.59 60.56 59.19 59.37 59.72 59.93 58.70 58.01 57.86 56.94 48.36 56.88
33.76 36.93 40.34 46.14 44.02 40.88 38.18 42.04 42.28 41.79 40.25 39.81 42.64 41.98 42.05 39.31 40.36 45.38 50.53 53.28 52.47 51.07 50.52 50.42 50.92 50.93 50.35 52.15 56.40 58.74 60.86 59.67 58.35 56.81 56.97 57.46 57.70 58.84 59.14 57.89 57.16 58.17 61.50 60.71 60.81 60.42 59.73 59.53 59.04 58.37 58.17 58.80 58.81 58.41
39.05 40.15 37.16 40.74 40.40 41.67 38.74 38.93 39.16 40.09 41.76 46.00 43.90 39.36 40.01 42.00 44.79 52.13 53.21 54.59 53.36 51.03 50.46 50.15 51.39 52.02 51.50 52.36 55.79 56.74 59.13 59.92 59.60 58.56 59.43 59.32 59.15 60.20 60.75 61.34 61.80 47.33 61.08 62.17 61.32 61.20 60.93 60.25 59.87 59.34 58.91 58.62 58.92 59.87
38.79 41.60 40.94 38.00 38.93 39.26 39.30 38.82 41.38 45.43 49.10 47.35 43.68 43.07 45.49 49.86 51.77 50.90 51.72 52.10 52.05 52.86 48.63 48.13 49.63 53.38 53.03 55.45 57.43 55.83 56.76 58.26 58.06 55.43 54.32 54.28 55.92 57.87 60.74 61.58 61.53 61.76 61.77 61.53 48.94 53.86 60.79 60.27 60.50 60.51 60.29 60.08 60.12 60.81
38.88 42.62 38.97 38.59 37.56 37.85 42.82 45.30 45.47 47.80 48.58 48.05 48.35 48.03 48.65 50.16 52.41 54.42 53.81 54.25 54.30 54.68 52.53 50.01 49.66 50.24 50.52 53.14 57.10 57.13 58.91 59.69 59.37 57.97 56.70 56.88 58.31 60.58 60.66 60.96 61.14 61.46 61.92 61.93 61.29 61.35 43.44 53.74 55.55 59.91 59.07 60.27 60.08 60.03
43.06 42.17 39.24 39.56 39.14 42.63 44.91 45.16 45.18 45.34 45.88 44.99 47.07 46.30 47.25 49.74 52.49 54.63 55.13 56.40 58.18 58.08 55.80 53.37 52.70 53.86 55.98 57.17 56.84 58.32 58.52 60.35 60.83 60.80 61.00 61.38 61.47 61.16 60.54 60.61 61.30 61.91 61.97 61.70 61.10 60.89 60.71 59.40 59.95 59.79 59.70 59.53 59.22 56.99
40.87 38.90 38.45 36.95 39.25 45.24 45.90 44.87 46.14 47.00 49.26 50.06 50.77 50.64 51.65 50.45 48.34 54.12 57.74 58.79 58.08 57.04 50.68 50.41 52.49 55.82 58.56 59.62 59.99 61.92 47.66 61.44 61.59 61.51 61.33 62.11 62.12 62.24 62.33 62.58 62.10 61.63 61.50 61.32 61.27 60.94 60.91 60.30 59.56 59.60 59.59 59.83 60.18 60.16
42.45 40.97 40.42 39.71 41.09 44.22 49.39 48.82 47.95 47.79 50.77 48.70 48.17 48.07 50.31 51.16 49.53 55.10 59.46 59.66 58.81 58.57 57.59 59.23 59.66 59.21 58.38 59.17 59.18 60.95 51.94 62.24 55.89 45.36 44.86 41.22 38.69 44.43 55.30 61.26 62.14 62.10 61.70 61.24 60.53 60.17 60.44 60.46 60.02 59.95 59.93 59.96 60.20 60.13
MSLP
1024.35 1023.92 1023.32 1022.97 1022.57 1022.08 1021.52 1021.05 1020.56 1020.09 1019.66 1019.24 1018.71 1018.31 1017.85 1017.48 1017.20 1016.77 1015.19 1015.32 1014.56 1011.97 1009.53 1008.98 1008.57 1007.77 1006.65 1006.00 1004.76 1004.53 1003.89 1002.95 1001.86 1000.86 999.83 999.12 998.97 998.70 999.03 998.91 999.12 999.43 999.54 999.40 999.64 999.98 1000.04 1000.67 1001.24 1001.17 1001.47 1001.03 1001.16 1001.55
1023.69 1023.46 1023.08 1022.66 1022.22 1021.86 1021.36 1020.78 1020.23 1019.79 1019.37 1018.96 1018.52 1018.09 1017.77 1017.41 1017.16 1016.92 1015.33 1015.28 1015.19 1013.85 1010.09 1009.66 1008.96 1008.26 1007.90 1007.07 1006.72 1005.34 1004.84 1004.13 1003.17 1001.93 1001.20 1000.29 1000.03 999.83 999.70 999.19 1000.08 1000.23 999.99 999.93 1000.00 1000.16 1001.54 1001.66 1001.72 1002.11 1002.09 1002.20 1002.40 1002.84
1023.58 1023.08 1022.64 1022.27 1021.88 1021.56 1021.02 1020.49 1019.91 1019.40 1018.98 1018.61 1018.21 1017.76 1017.44 1017.21 1017.01 1016.93 1016.10 1015.54 1014.95 1012.91 1009.61 1008.33 1007.02 1007.17 1007.49 1007.68 1007.32 1006.53 1005.25 1005.20 1004.35 1004.51 1002.73 1001.65 1001.04 1000.50 999.92 999.97 999.85 1000.63 1001.33 1000.98 1001.02 1000.71 1001.53 1002.08 1002.34 1002.46 1002.22 1002.66 1003.40 1004.19
1023.35 1022.89 1022.42 1021.90 1021.46 1021.08 1020.72 1020.17 1019.59 1019.04 1018.55 1018.15 1017.72 1017.32 1016.98 1016.75 1016.60 1016.53 1015.97 1015.24 1014.81 1012.96 1010.10 1006.44 1006.62 1006.43 1006.64 1006.82 1007.14 1006.73 1006.05 1005.95 1005.34 1004.61 1003.29 1002.30 1001.68 1002.14 1000.75 1000.72 1000.53 1000.66 1001.14 1000.90 1001.06 1001.68 1002.06 1002.30 1002.41 1002.69 1003.09 1003.41 1003.77 1004.26
1023.12 1022.61 1022.07 1021.57 1021.14 1020.68 1020.27 1019.79 1019.21 1018.66 1018.08 1017.54 1017.13 1016.76 1016.41 1016.15 1015.97 1015.80 1015.34 1015.10 1015.08 1013.73 1010.36 1007.29 1006.30 1005.97 1006.00 1006.23 1006.51 1006.77 1006.63 1006.08 1005.21 1004.28 1003.45 1002.69 1002.62 1002.81 1002.04 1001.76 1000.59 1000.49 1000.57 1000.65 1000.11 1000.24 1001.24 1001.10 1002.25 1002.74 1003.05 1003.42 1003.85 1004.41
1022.57 1022.25 1021.68 1021.15 1020.80 1020.31 1019.83 1019.39 1018.80 1018.17 1017.56 1016.96 1016.45 1016.01 1015.61 1015.43 1015.43 1015.15 1013.74 1014.06 1014.49 1013.97 1011.70 1008.03 1005.99 1005.75 1005.75 1006.05 1006.18 1006.29 1006.23 1006.16 1005.87 1004.58 1003.64 1003.28 1003.75 1003.65 1001.96 1001.00 1000.55 1000.20 1000.77 1000.97 1000.79 1001.41 1001.24 1001.67 1002.10 1002.77 1003.10 1003.65 1004.23 1004.67
1022.04 1021.78 1021.26 1020.74 1020.36 1019.89 1019.34 1018.84 1018.28 1017.57 1016.89 1016.22 1015.63 1015.09 1014.66 1014.53 1014.74 1013.84 1013.97 1013.85 1014.12 1013.85 1011.66 1008.14 1005.34 1005.18 1005.54 1005.65 1005.78 1005.94 1006.16 1005.85 1005.40 1004.48 1003.88 1003.27 1003.25 1003.86 1002.38 1001.09 1000.85 1000.75 1000.93 1001.30 1001.67 1001.98 1001.87 1001.93 1002.13 1002.83 1003.28 1003.92 1004.86 1005.30
1021.58 1021.27 1020.82 1020.26 1019.86 1019.47 1018.85 1018.27 1017.68 1017.00 1016.18 1015.50 1014.86 1014.28 1013.95 1013.83 1014.15 1013.43 1013.44 1014.22 1013.98 1012.67 1011.06 1008.37 1005.55 1004.68 1005.07 1004.33 1004.60 1005.18 1005.10 1005.34 1004.98 1003.91 1003.65 1003.13 1003.09 1003.23 1001.96 1001.33 1001.20 1001.10 1000.99 1001.32 1001.64 1001.91 1001.45 1001.82 1002.40 1003.02 1003.56 1004.24 1004.76 1005.38
1021.05 1020.73 1020.26 1019.83 1019.38 1018.95 1018.35 1017.74 1017.14 1016.44 1015.60 1014.86 1014.34 1014.12 1013.84 1013.44 1012.59 1013.39 1013.57 1014.15 1013.63 1012.88 1009.99 1007.95 1005.74 1003.56 1004.37 1003.94 1004.00 1004.61 1004.23 1003.86 1003.93 1003.44 1002.64 1002.67 1002.08 1001.79 1001.21 1001.26 1001.09 1001.09 1001.28 1001.28 1001.37 1001.71 1001.93 1001.97 1002.56 1003.15 1003.68 1004.28 1004.66 1005.42
1020.56 1020.17 1019.77 1019.41 1018.94 1018.44 1017.87 1017.25 1016.71 1016.02 1014.97 1014.11 1014.06 1013.20 1012.19 1013.21 1013.76 1014.07 1013.74 1013.21 1012.44 1011.18 1010.27 1007.81 1006.19 1004.61 1004.53 1003.61 1003.34 1003.33 1003.46 1002.83 1002.63 1002.24 1002.60 1002.20 1001.27 1001.01 1000.89 1000.64 1000.70 1001.27 1001.49 1001.59 1001.66 1002.09 1002.20 1002.28 1002.80 1003.24 1003.76 1004.19 1004.82 1005.36
1020.13 1019.63 1019.29 1018.98 1018.51 1017.97 1017.41 1016.84 1016.41 1015.85 1014.40 1013.44 1013.11 1013.06 1013.23 1013.22 1013.04 1012.04 1011.08 1010.67 1009.91 1009.40 1008.09 1006.88 1005.99 1004.89 1004.97 1004.04 1003.17 1003.47 1002.54 1002.46 1002.10 1001.78 1002.17 1001.10 1000.82 1000.68 1001.42 1001.61 1001.70 1001.62 1001.71 1001.74 1002.03 1002.18 1002.59 1003.03 1003.26 1003.74 1004.19 1004.67 1005.18 1005.71
1019.71 1019.20 1018.84 1018.57 1018.15 1017.61 1017.08 1016.65 1016.26 1015.93 1015.54 1015.50 1015.34 1014.81 1014.03 1012.55 1011.55 1010.79 1009.40 1008.80 1008.41 1006.94 1006.53 1006.23 1006.17 1005.36 1004.81 1005.04 1004.04 1003.77 1003.21 1002.84 1001.92 1002.49 1002.18 1001.25 1001.47 1002.18 1002.39 1002.41 1002.34 1002.03 1002.15 1002.44 1002.83 1003.42 1003.77 1004.04 1004.34 1004.65 1004.84 1004.95 1005.32 1005.83
1019.23 1018.77 1018.47 1018.17 1017.77 1017.22 1016.82 1016.49 1016.21 1015.92 1015.18 1014.73 1014.81 1013.99 1012.93 1011.13 1010.22 1008.99 1007.76 1006.86 1006.41 1006.04 1006.05 1006.03 1005.85 1005.02 1005.18 1004.98 1004.09 1003.74 1003.20 1002.40 1002.64 1002.21 1001.40 1001.24 1002.72 1003.09 1003.34 1003.34 1003.38 1003.32 1003.42 1003.80 1004.08 1004.49 1004.67 1004.93 1005.15 1005.39 1005.26 1005.52 1005.66 1006.16
1018.75 1018.32 1018.00 1017.70 1017.41 1017.01 1016.67 1016.28 1015.94 1015.50 1015.08 1014.04 1013.25 1012.55 1011.39 1009.67 1008.39 1007.21 1006.66 1006.34 1006.39 1006.46 1006.24 1006.17 1005.71 1005.28 1004.89 1004.64 1004.10 1003.67 1002.89 1003.03 1002.10 1001.58 1001.51 1002.66 1003.72 1004.01 1004.16 1004.15 1004.08 1004.12 1004.22 1004.51 1004.88 1005.17 1005.39 1005.45 1005.46 1005.65 1005.70 1005.69 1005.91 1006.08
1018.26 1017.80 1017.49 1017.13 1017.10 1016.76 1016.36 1015.94 1015.65 1015.30 1014.70 1013.23 1012.34 1010.96 1009.44 1008.30 1007.99 1007.57 1007.12 1006.81 1006.67 1006.89 1006.64 1006.41 1006.03 1005.46 1004.95 1004.61 1003.98 1003.62 1003.27 1002.46 1001.79 1001.69 1002.57 1003.72 1004.36 1004.58 1004.72 1004.84 1004.76 1004.80 1004.93 1005.08 1005.32 1005.50 1005.77 1005.95 1005.99 1005.92 1005.96 1006.10 1006.21 1006.33
1017.84 1017.37 1016.61 1016.88 1016.85 1016.50 1016.04 1015.34 1015.07 1014.95 1014.20 1013.15 1011.53 1010.28 1008.93 1008.34 1007.53 1007.58 1007.57 1007.22 1007.24 1007.22 1006.87 1006.67 1006.05 1005.36 1004.62 1004.44 1003.77 1003.04 1002.64 1002.05 1002.50 1003.27 1003.68 1004.43 1004.77 1004.99 1005.17 1005.30 1005.34 1005.51 1005.72 1005.88 1006.11 1006.31 1006.38 1006.46 1006.43 1006.37 1006.39 1006.29 1006.15 1006.22
1017.60 1016.78 1016.53 1016.58 1016.52 1016.07 1015.41 1015.15 1014.71 1014.31 1013.28 1011.77 1010.56 1010.00 1009.57 1008.86 1007.96 1007.60 1007.80 1008.00 1007.78 1007.68 1007.22 1007.03 1006.37 1005.13 1004.94 1004.14 1003.32 1002.86 1002.43 1003.19 1003.54 1004.01 1004.18 1004.71 1005.20 1005.56 1005.77 1005.79 1005.84 1006.01 1006.16 1006.33 1006.50 1006.65 1006.75 1006.84 1006.72 1006.55 1006.39 1006.34 1006.31 1006.33
1016.98 1016.30 1016.34 1016.43 1016.36 1015.53 1014.84 1014.48 1013.85 1013.22 1012.21 1011.02 1010.17 1009.37 1009.06 1008.62 1008.18 1007.66 1007.47 1007.62 1007.69 1007.32 1007.21 1006.95 1006.55 1005.40 1004.35 1003.50 1002.56 1002.61 1003.06 1003.80 1004.13 1004.30 1004.66 1005.12 1005.53 1005.79 1005.60 1005.48 1005.95 1006.08 1006.29 1006.49 1006.65 1006.71 1006.72 1006.65 1006.64 1006.86 1006.95 1006.65 1006.45 1006.29
1016.58 1016.34 1016.18 1016.24 1016.31 1015.98 1015.07 1014.17 1013.78 1012.77 1011.62 1010.73 1010.18 1009.84 1009.30 1008.68 1008.29 1008.04 1007.90 1007.67 1007.70 1007.78 1007.68 1006.95 1006.17 1004.82 1003.80 1003.20 1002.92 1003.01 1003.42 1003.80 1004.32 1004.68 1004.94 1005.16 1005.40 1005.32 1005.60 1005.96 1006.09 1006.18 1006.35 1006.48 1006.47 1006.21 1006.29 1006.51 1006.51 1006.65 1006.84 1006.89 1006.69 1006.62
1016.33 1016.03 1015.81 1015.77 1015.92 1015.58 1014.93 1013.97 1013.60 1012.85 1011.76 1010.92 1010.40 1009.48 1008.87 1008.25 1007.77 1007.47 1007.33 1007.24 1007.36 1007.56 1007.17 1006.31 1005.10 1004.30 1003.60 1003.60 1003.74 1003.60 1003.64 1004.03 1004.54 1004.91 1005.18 1005.41 1005.78 1005.55 1005.67 1005.62 1005.51 1005.83 1006.07 1006.22 1006.17 1006.30 1005.79 1005.75 1005.96 1006.48 1006.86 1006.88 1006.46 1006.23
1015.87 1015.43 1015.44 1015.55 1015.61 1015.47 1015.00 1014.03 1013.01 1012.18 1011.41 1010.53 1009.39 1008.93 1008.29 1007.58 1007.38 1007.02 1006.71 1006.72 1006.91 1006.38 1005.58 1005.17 1004.86 1004.53 1004.29 1003.97 1003.81 1004.32 1004.28 1004.33 1004.05 1004.58 1005.26 1005.77 1005.70 1005.83 1005.72 1005.41 1005.56 1005.51 1005.32 1005.11 1004.97 1005.57 1005.57 1005.77 1005.76 1005.58 1006.05 1006.43 1006.27 1005.91
1015.38 1015.45 1015.36 1015.40 1015.24 1015.10 1014.74 1014.00 1013.09 1012.28 1011.67 1010.07 1009.57 1009.06 1008.10 1007.17 1006.67 1006.72 1006.73 1006.41 1005.84 1005.14 1005.06 1004.86 1004.53 1004.23 1004.11 1004.13 1004.15 1004.18 1004.08 1004.16 1004.55 1004.99 1005.46 1005.80 1006.00 1005.59 1005.43 1005.05 1005.04 1004.83 1004.64 1004.42 1004.59 1004.76 1005.03 1005.23 1005.70 1006.33 1006.75 1006.34 1006.35 1005.92
1015.58 1015.47 1015.23 1015.03 1014.92 1014.63 1013.91 1013.48 1013.04 1012.09 1011.10 1009.74 1009.20 1008.56 1007.72 1007.27 1007.04 1007.06 1006.53 1005.76 1004.71 1004.80 1004.92 1005.08 1004.94 1004.71 1004.18 1003.71 1003.62 1003.54 1003.75 1003.97 1004.08 1004.42 1005.23 1005.30 1005.29 1005.07 1004.88 1004.41 1004.39 1004.21 1003.99 1004.21 1004.21 1004.27 1004.45 1005.29 1005.90 1005.96 1006.03 1005.82 1005.59 1005.49
1015.66 1015.33 1014.76 1014.46 1014.37 1013.77 1013.18 1012.89 1012.51 1011.85 1010.76 1009.88 1009.08 1008.05 1007.14 1007.02 1006.78 1006.31 1005.35 1005.09 1005.52 1005.70 1005.89 1005.62 1005.25 1004.54 1003.71 1003.20 1002.81 1002.60 1002.78 1003.16 1003.43 1003.86 1004.79 1005.12 1005.12 1004.92 1004.23 1003.72 1003.67 1003.73 1003.83 1003.44 1003.66 1003.92 1004.22 1004.58 1005.06 1005.27 1005.17 1005.09 1005.26 1005.22
1015.56 1015.09 1014.73 1013.98 1013.64 1013.42 1012.85 1011.93 1011.38 1010.96 1010.04 1009.46 1008.64 1007.35 1007.00 1007.04 1006.46 1005.71 1005.54 1005.97 1005.95 1006.14 1006.14 1005.94 1005.57 1005.01 1004.07 1002.61 1001.90 1001.72 1001.97 1002.07 1002.32 1002.58 1003.70 1004.47 1004.57 1004.53 1003.61 1003.32 1003.22 1003.08 1003.64 1003.35 1003.40 1003.38 1003.59 1003.86 1004.15 1004.34 1004.51 1004.66 1004.79 1004.83
1014.77 1013.92 1013.76 1012.55 1012.34 1012.42 1012.18 1011.28 1010.46 1010.08 1009.53 1008.49 1007.61 1007.27 1007.09 1006.83 1006.24 1005.46 1005.54 1005.71 1006.06 1006.28 1006.38 1006.21 1005.81 1005.27 1004.29 1003.41 1002.64 1001.84 1001.12 1001.56 1001.74 1002.01 1002.97 1003.77 1004.22 1003.69 1002.86 1002.30 1002.15 1002.14 1002.41 1002.83 1003.28 1003.04 1002.98 1003.22 1003.43 1003.69 1003.89 1004.24 1004.97 1004.84
1013.97 1012.96 1012.83 1012.22 1012.15 1012.43 1012.17 1011.21 1010.60 1009.78 1008.61 1007.67 1007.24 1007.17 1006.90 1006.15 1005.22 1005.12 1004.91 1004.99 1005.37 1005.85 1006.09 1005.88 1005.54 1005.08 1004.58 1003.75 1002.66 1002.02 1001.76 1001.24 1001.54 1002.20 1002.87 1003.40 1003.52 1003.29 1002.70 1001.99 1001.66 1001.47 1001.57 1002.17 1002.42 1002.47 1002.43 1002.53 1002.81 1003.00 1003.15 1003.20 1003.28 1003.60
1013.49 1012.77 1012.45 1012.11 1012.06 1011.93 1011.35 1010.72 1009.68 1008.25 1007.42 1007.13 1007.20 1006.75 1006.11 1005.11 1004.24 1004.17 1004.22 1004.51 1004.82 1004.91 1004.80 1004.89 1004.68 1004.25 1003.87 1003.45 1002.43 1002.08 1001.79 1001.67 1001.86 1002.25 1002.49 1002.67 1002.79 1002.34 1002.19 1001.92 1001.70 1002.08 1001.77 1001.72 1002.12 1002.24 1002.28 1002.27 1002.48 1002.47 1002.45 1002.47 1002.47 1002.64
1013.02 1012.53 1012.45 1011.81 1011.57 1011.21 1010.34 1009.47 1008.18 1006.98 1006.35 1006.27 1006.06 1005.60 1004.80 1004.06 1003.54 1003.34 1003.17 1003.17 1003.28 1003.62 1003.74 1003.71 1003.65 1003.38 1002.98 1002.39 1002.16 1002.27 1002.09 1001.51 1001.40 1001.57 1001.68 1001.47 1001.34 1001.14 1001.20 1001.23 1001.05 1001.16 1001.44 1001.66 1002.15 1002.29 1002.28 1002.67 1002.61 1002.54 1002.26 1001.97 1001.96 1001.92
1012.29 1012.05 1011.73 1011.24 1010.76 1009.68 1008.40 1007.94 1007.29 1006.83 1006.64 1006.38 1006.05 1005.51 1004.80 1003.98 1003.37 1003.05 1002.60 1002.27 1002.00 1001.96 1002.27 1002.63 1002.61 1002.55 1002.25 1001.94 1001.38 1001.17 1001.09 1001.06 1000.86 1000.68 1000.36 1000.20 999.87 999.58 999.71 1000.15 1000.29 1000.32 1000.47 1000.79 1001.20 1001.47 1002.49 1002.72 1002.39 1002.47 1002.41 1001.86 1001.46 1001.38
1011.64 1011.49 1011.35 1010.87 1009.97 1008.60 1007.91 1007.65 1007.69 1007.57 1007.04 1006.32 1005.89 1005.32 1004.37 1003.78 1002.92 1002.45 1002.15 1001.96 1001.48 1001.26 1001.40 1001.69 1001.59 1001.32 1000.69 1000.57 1000.80 1000.51 1000.18 1000.32 1000.40 1000.54 1000.45 999.91 999.41 999.00 998.81 999.03 999.32 999.58 999.66 1000.12 1000.42 1000.56 1000.77 1001.28 1000.94 1000.91 1000.99 1000.91 1000.68 1000.94
1010.86 1010.89 1010.80 1010.34 1009.13 1007.75 1007.26 1006.73 1006.36 1005.90 1005.16 1004.49 1004.02 1004.08 1003.67 1003.52 1002.88 1002.11 1001.76 1001.63 1001.15 1000.81 1001.38 1001.41 1001.28 1000.54 1000.29 1000.21 1000.33 1000.26 1000.64 1000.21 1000.22 1000.30 1000.47 1000.29 1000.05 999.63 999.43 999.29 999.15 999.12 999.37 999.71 999.91 999.84 1000.06 1000.11 1000.10 1000.03 1000.04 1000.17 1000.32 1000.32
1009.72 1009.95 1010.06 1009.75 1008.63 1007.15 1005.77 1005.41 1005.04 1004.61 1004.18 1004.03 1003.91 1003.80 1003.49 1003.04 1002.38 1002.20 1001.89 1001.84 1001.77 1001.21 1001.15 1000.97 1000.86 1000.58 1000.47 1000.47 1000.36 1000.14 1000.89 1000.13 1000.77 1001.16 1001.35 1001.49 1001.59 1001.32 1000.70 999.59 998.81 998.94 999.34 999.48 999.29 999.29 999.52 999.64 999.69 999.88 999.98 1000.01 1000.03 1000.10
Wind_Speed
14 15 15 16 16 16 16 16 17 17 18 17 17 16 15 13 12 7 5 3 5 5 10 11 8 9 6 5 5 7 6 6 5 7 8 4 8 6 6 4 4 9 9 10 11 12 20 7 3 10 8 4 7 11
14 14 15 16 17 17 17 17 16 17 18 17 17 16 15 13 11 7 5 1 3 7 8 10 14 15 15 13 7 2 6 4 5 5 2 3 5 2 8 10 5 9 10 10 6 5 2 3 9 5 5 7 8 9
14 14 15 16 16 17 17 18 17 17 18 18 17 16 14 12 10 5 5 4 5 5 8 7 4 6 11 19 14 5 3 5 2 5 4 3 6 4 9 11 12 4 4 7 5 10 5 2 4 6 6 10 10 5
14 14 15 16 16 17 17 18 17 18 17 18 17 17 15 13 10 7 4 3 5 5 6 3 3 3 3 8 16 18 7 4 4 4 3 3 4 1 6 5 7 6 9 10 8 3 3 6 9 10 8 8 7 5
14 14 14 15 16 17 18 18 19 19 19 19 18 17 16 14 11 8 6 5 7 6 6 8 14 1 3 6 9 13 13 9 3 4 4 5 2 4 4 4 9 7 11 9 9 1 11 6 13 11 10 8 6 6
14 15 15 15 17 17 18 18 19 20 20 20 19 19 16 12 8 4 4 5 8 5 5 5 4 3 3 5 7 8 9 7 5 4 4 3 2 5 6 11 14 12 7 11 10 6 8 3 13 13 10 6 5 5
14 15 15 15 16 17 19 19 19 21 21 21 20 20 16 10 6 4 6 4 8 5 5 5 2 5 1 6 4 5 7 4 5 4 5 6 5 5 8 14 13 9 8 6 7 5 5 10 11 11 8 7 5 7
15 16 16 16 17 18 19 19 20 21 23 22 21 16 4 8 2 4 4 7 7 5 4 5 3 4 3 5 5 4 6 5 6 5 2 6 4 5 6 6 9 12 12 8 9 12 6 11 6 11 8 8 8 7
15 15 15 16 17 18 18 19 20 21 23 22 14 5 5 5 2 4 3 9 5 5 5 3 4 4 1 2 2 5 5 6 3 6 8 5 7 7 6 8 7 6 8 10 6 10 7 9 10 10 9 8 6 7
15 15 15 16 17 18 18 18 19 21 25 19 6 5 4 3 4 7 4 3 5 5 5 5 1 3 4 1 4 4 4 5 5 5 2 6 10 12 13 11 6 6 7 7 10 9 9 8 7 8 6 5 4 4
15 15 15 16 17 17 17 18 18 19 10 4 4 3 5 3 5 4 4 5 4 4 6 4 4 4 3 5 1 1 1 2 5 4 5 5 6 6 5 6 6 8 8 7 8 4 5 3 3 4 3 3 5 5
14 15 15 16 16 16 15 13 11 5 3 6 7 4 3 4 4 5 4 3 5 4 5 4 3 4 2 2 4 3 4 3 5 3 4 6 5 8 6 5 4 1 4 6 5 5 6 6 5 3 3 5 6 5
13 14 15 15 16 15 8 11 10 11 12 1 2 3 3 3 2 6 6 5 3 3 5 6 4 3 4 4 3 3 5 5 1 5 6 2 7 6 5 6 8 9 9 8 8 7 6 5 3 2 5 5 5 7
13 14 14 13 13 8 11 13 13 8 4 3 3 3 5 4 5 3 4 2 3 3 2 2 2 2 2 4 2 4 2 3 5 4 4 5 5 5 5 5 6 7 7 7 6 4 4 3 4 4 5 5 6 7
12 15 14 10 7 11 12 14 16 3 3 4 3 4 6 3 1 3 3 2 1 2 1 1 2 2 2 3 2 2 4 6 5 1 4 4 5 6 5 4 5 5 5 5 5 5 5 5 6 6 5 6 6 5
11 16 3 2 10 12 14 12 2 2 3 4 5 5 4 5 4 2 3 3 5 2 2 1 2 4 4 3 4 6 3 5 4 2 4 6 6 5 4 5 6 5 5 4 5 5 5 5 6 6 6 7 7 7
8 5 2 6 11 16 11 4 2 4 4 4 3 3 5 6 5 2 1 1 3 2 3 2 6 4 1 4 4 4 3 3 2 3 4 6 5 5 4 4 5 4 4 3 3 3 4 4 4 5 6 4 5 4
5 6 4 8 10 9 2 3 3 4 6 6 5 3 3 4 5 5 3 2 3 2 3 3 5 4 4 4 4 1 1 3 1 3 5 4 5 3 3 6 4 4 3 2 3 3 4 5 4 2 3 5 4 2
8 10 12 12 7 4 3 3 2 4 4 5 4 4 5 6 6 7 7 6 5 4 4 3 6 5 8 6 5 5 1 1 2 1 3 4 5 5 0 4 4 3 1 1 3 3 4 3 4 3 1 2 2 3
13 12 10 7 4 2 3 3 2 4 4 2 4 7 5 6 6 6 6 6 6 5 6 7 8 9 8 3 5 6 4 2 2 3 1 2 2 2 3 5 4 3 4 3 2 3 3 3 4 5 4 4 5 6
5 1 2 2 2 2 2 3 4 3 4 5 6 6 6 5 6 7 7 6 8 6 9 9 10 10 10 10 6 5 3 5 4 2 3 0 3 3 4 5 5 4 4 3 1 5 3 5 3 3 7 6 5 5
1 1 1 2 2 2 3 3 5 5 5 5 6 3 5 5 4 1 2 5 6 9 10 9 9 9 8 11 11 12 11 8 5 5 3 5 5 6 4 6 6 6 5 3 2 5 3 5 4 4 2 4 3 3
3 1 2 3 3 2 3 2 3 3 4 3 2 4 3 3 2 5 4 5 3 1 3 4 7 9 12 12 11 12 10 8 6 5 5 4 5 3 5 7 7 6 4 3 4 3 4 6 4 4 4 4 1 2
1 2 3 2 4 3 2 3 3 3 4 3 3 5 3 1 2 4 5 2 4 5 4 6 6 6 8 11 10 10 10 10 10 7 6 4 3 5 6 6 6 6 7 7 6 5 5 6 5 7 6 6 5 3
3 2 3 3 3 3 4 4 4 3 3 3 4 4 2 1 3 3 1 1 1 1 4 6 4 7 8 7 8 9 11 10 11 10 7 4 3 7 6 5 6 6 5 7 7 7 7 7 7 7 8 8 8 7
4 5 5 3 2 4 2 4 2 1 4 4 3 2 1 2 4 3 1 2 1 2 4 5 6 6 8 6 5 6 6 8 10 9 7 8 6 8 7 6 9 9 8 7 8 10 10 9 9 10 9 9 5 8
4 4 4 4 2 1 3 5 4 5 5 3 2 2 2 4 4 4 3 4 2 3 4 5 5 6 5 8 8 4 6 5 8 5 4 5 9 10 9 6 8 7 4 4 8 10 10 11 10 10 9 8 9 11
4 3 4 1 2 2 4 4 4 6 3 1 2 3 3 3 3 2 1 1 4 5 7 5 7 6 6 9 8 4 4 4 4 4 5 7 8 7 8 8 9 3 4 4 5 7 8 9 10 10 10 10 10 9
4 3 3 8 6 4 5 6 7 5 2 4 5 5 5 5 8 11 11 9 6 4 5 6 5 6 5 5 4 2 5 5 9 12 12 9 10 11 11 10 9 9 8 9 11 11 8 7 8 9 10 9 8 7
4 5 4 4 5 5 5 6 6 6 7 7 8 11 12 12 11 10 10 8 6 5 4 6 6 5 5 5 5 5 6 6 7 7 7 9 11 9 9 11 10 8 7 8 9 8 3 7 7 7 8 8 8 8
3 3 4 5 6 7 9 7 5 5 10 11 11 12 12 9 6 4 4 6 7 5 3 2 4 5 6 2 2 4 4 4 5 6 7 8 6 3 7 9 8 8 7 7 8 9 8 9 9 10 11 13 12 8
4 5 2 3 5 5 8 6 5 5 4 3 0 2 2 2 3 3 5 7 6 5 5 1 2 4 4 3 1 0 2 3 1 0 3 3 4 4 6 6 7 6 6 7 8 8 9 8 7 8 8 11 12 12
4 4 5 4 4 5 4 4 4 4 2 1 1 1 2 2 5 4 5 7 5 5 5 4 3 3 3 3 3 1 2 2 4 3 2 0 4 7 7 8 7 7 9 9 9 9 10 11 9 8 8 8 9 10
Wind_Direction
327 329 329 327 326 326 326 327 329 331 334 335 336 335 337 342 345 326 316 290 297 288 292 262 253 265 252 242 274 49 246 195 238 243 240 208 270 184 262 275 225 227 232 247 250 264 280 53 167 238 5 342 132 134
323 325 326 326 325 323 322 323 326 327 328 327 330 329 332 334 335 332 280 110 289 260 290 314 285 275 262 274 295 247 338 305 4 277 229 326 231 231 258 253 159 249 262 299 284 302 42 266 266 321 292 134 131 125
319 321 323 324 324 321 322 323 325 326 324 324 323 323 323 321 321 299 287 304 255 271 267 236 230 232 229 237 246 267 176 344 97 345 336 350 268 295 241 235 262 173 255 244 237 225 249 259 209 181 146 113 88 83
317 319 320 322 322 321 320 324 324 325 323 320 319 317 315 312 305 278 248 270 276 287 283 83 148 253 217 207 215 231 265 279 287 282 285 286 275 26 274 332 281 321 152 231 243 236 193 195 174 158 153 148 147 131
310 312 315 318 317 321 323 324 324 323 321 320 317 312 309 305 296 275 247 224 253 291 322 311 309 88 229 191 205 212 226 238 267 246 237 248 338 258 205 282 247 200 240 221 255 195 226 177 192 184 175 175 153 141
307 308 310 315 318 320 320 319 317 317 316 315 313 308 301 291 277 256 226 171 209 212 281 289 30 190 129 159 186 187 202 218 248 260 246 252 247 272 264 249 250 260 237 284 291 347 234 285 177 181 183 164 138 128
306 305 306 311 316 318 317 316 317 317 314 314 312 306 296 267 206 252 360 35 162 205 252 279 244 124 155 145 150 159 180 195 234 224 236 261 202 214 255 256 264 252 273 280 267 243 200 200 183 180 172 133 143 114
304 304 305 309 309 309 311 312 315 317 315 316 314 312 310 137 177 225 134 157 196 257 254 276 265 200 193 182 159 169 169 200 195 251 214 245 154 229 253 272 272 270 264 259 255 223 278 183 167 168 162 154 164 157
301 302 307 309 308 308 311 313 315 317 314 315 318 159 194 225 204 60 88 156 226 293 297 247 274 91 207 161 130 179 209 198 118 232 230 235 232 219 238 250 269 277 247 260 231 210 224 182 175 162 177 174 190 159
303 306 310 309 307 309 311 314 316 317 313 310 230 228 163 57 325 164 203 199 200 195 233 260 299 246 302 198 164 172 196 240 221 198 109 238 251 258 261 287 293 274 285 250 199 204 202 178 176 176 188 201 201 192
303 307 310 308 311 313 315 314 312 318 307 318 327 354 348 344 214 217 232 229 159 226 208 238 264 280 134 269 71 290 170 186 245 153 241 241 239 223 35 322 309 282 247 226 215 237 188 92 137 166 180 219 206 215
302 306 307 307 311 314 322 344 343 326 325 308 300 295 283 236 218 246 223 175 220 244 162 224 192 238 135 263 251 174 236 198 250 108 239 246 63 41 17 17 20 72 145 127 135 108 85 73 66 19 313 259 237 223
300 304 305 307 312 316 328 325 326 308 287 174 217 236 230 171 241 223 200 198 221 190 185 194 185 227 166 229 240 228 223 229 90 223 242 43 33 51 55 84 87 87 91 94 85 73 63 60 56 280 263 246 234 209
297 298 299 305 311 321 320 323 324 330 284 259 248 261 231 193 235 220 272 336 46 324 2 354 268 285 200 221 217 231 180 257 236 243 222 59 37 100 101 100 107 96 87 86 79 59 41 338 311 281 259 256 234 237
295 296 298 297 300 312 315 317 315 270 273 267 233 243 223 260 269 321 319 257 61 17 257 310 295 262 218 250 230 273 220 231 228 227 63 51 120 128 116 89 91 82 67 52 18 2 352 331 302 285 261 265 247 254
304 296 221 294 310 316 316 309 274 245 243 249 238 269 236 254 198 164 360 18 4 307 265 319 302 263 215 248 222 219 242 233 72 39 98 131 135 121 114 110 91 67 49 42 40 28 9 352 323 311 293 261 253 253
297 254 81 312 316 304 295 264 214 236 256 245 241 240 265 279 290 285 260 345 314 354 15 275 216 218 286 240 233 210 270 55 56 120 129 110 129 118 107 97 100 100 97 77 84 44 13 334 307 284 272 247 245 234
247 291 318 326 323 311 240 233 260 251 247 244 250 260 252 273 287 280 235 218 256 246 244 253 310 233 225 247 226 168 30 42 90 157 153 165 156 191 146 112 112 101 86 53 10 336 320 327 312 311 286 266 223 250
288 303 310 303 294 309 290 262 256 269 261 304 303 303 291 288 282 281 275 269 253 276 280 235 249 233 230 246 289 308 243 264 310 287 184 152 211 199 58 172 174 167 177 321 317 354 13 16 26 7 124 186 151 185
287 283 284 283 217 238 252 243 208 247 266 294 245 246 241 251 269 268 253 235 220 211 210 225 242 259 279 273 291 295 277 218 216 222 183 194 251 252 209 207 197 176 223 207 222 278 148 109 94 118 142 163 169 143
265 120 304 190 201 250 293 283 269 266 310 281 306 312 290 271 246 249 234 214 215 218 234 237 254 257 265 280 280 310 266 254 254 246 148 149 256 272 259 199 205 211 233 212 132 119 236 54 41 84 126 136 149 133
270 271 255 203 248 201 255 246 281 317 265 298 295 248 274 274 268 254 337 217 240 232 237 255 263 270 259 250 252 245 252 256 227 135 113 128 237 244 241 216 199 214 220 205 170 148 141 122 126 87 97 142 222 121
273 222 239 218 229 232 267 121 258 249 261 276 263 255 224 265 241 172 227 215 245 119 333 309 301 289 270 261 253 242 230 236 232 190 180 179 269 246 245 212 204 225 219 230 203 210 161 102 153 172 190 229 266 184
182 253 253 231 199 267 268 233 220 259 270 256 270 270 265 262 256 238 239 167 52 54 6 334 308 278 267 231 233 229 222 220 235 173 175 173 198 268 238 220 202 213 220 213 203 201 199 187 182 196 223 199 198 232
245 240 241 232 248 218 244 234 218 233 266 278 253 247 240 237 258 248 226 94 261 164 26 354 330 330 304 263 220 212 213 218 214 226 173 172 147 264 242 220 221 219 202 227 224 215 206 208 188 203 207 218 218 209
243 189 216 229 199 228 250 287 277 236 251 259 267 275 299 284 265 272 211 173 143 316 348 320 308 310 309 321 303 285 205 205 218 221 171 173 188 247 255 226 205 203 198 197 213 229 219 207 212 206 210 203 216 264
251 220 209 260 225 165 271 243 263 277 266 260 272 254 264 243 232 219 221 201 174 157 247 261 258 276 278 288 300 294 280 207 200 195 126 191 219 232 247 254 227 237 144 205 222 226 225 208 212 211 216 215 210 204
277 276 233 227 221 258 282 283 258 245 236 241 231 236 258 259 264 22 344 179 257 289 290 270 270 255 247 259 263 251 229 209 167 181 214 203 220 237 242 253 253 98 264 239 231 220 228 225 218 227 223 227 227 223
235 226 258 255 240 234 242 229 235 245 240 228 250 263 262 266 307 313 305 307 296 252 307 307 300 302 304 293 262 211 238 221 200 192 211 221 221 221 228 237 237 212 217 230 211 242 253 248 243 231 234 239 238 236
243 207 239 251 244 242 228 222 274 311 321 311 306 296 285 281 289 298 295 294 296 298 237 204 238 266 252 236 227 218 225 229 232 240 237 224 231 227 191 202 214 220 220 232 244 222 169 233 231 245 241 248 245 237
258 204 247 232 247 246 247 247 259 270 267 266 258 260 276 295 306 289 304 322 306 302 283 237 241 236 265 348 198 230 182 175 230 237 263 310 326 265 199 189 203 217 225 226 226 228 201 207 222 221 230 232 236 234
196 214 219 260 275 287 298 255 234 239 255 255 248 197 199 240 268 286 2 350 354 29 50 309 271 323 28 20 3 140 175 354 128 296 306 305 306 297 266 253 241 244 226 221 220 218 202 219 223 230 239 238 239 239
225 188 211 253 264 258 235 236 230 242 224 278 282 212 253 299 355 13 9 14 348 349 351 334 284 298 341 296 294 313 233 303 87 130 140 49 305 297 292 272 249 229 233 239 237 235 217 219 228 234 243 252 252 247